OPS 4682 DEB, 38360

Orbit data source: Space-Track

OPS 4682 DEB, 38360 is space debris in LEO originally from a launch on Sat, 03 Apr 1965 UTC launched from the Air Force Western Test Range (AFWTR). Debris objects in space refer to the collection of defunct objects orbiting the Earth. Examples of debris include non-operational satellites, rocket bodies, and fragments generated from explosions, collisions, or faulty payload assembly.

Loading next visibility...
Identifier
38360, 1965-027BM
Orbit
LEO
Country
Flag of USUS
Related business
Manufacturer
Unknown
Mission
Spacecraft
Bus & Motor
Unknown
Mass
Unknown
Launch date (UTC)
1965-04-03 (61 years ago)
Launch vehicle
Unknown
Launch site
Air Force Western Test Range (AFWTR)
Object type
Payload
Rocket body
Debris
Shape & HBR
Unknown shape, 0.1 m
Radar Cross Section
Small (<0.1 m²)

Expand to show TLE details & history
Last TLE update: 1 week ago

TLE from 1 week ago
0 OPS 4682 DEB
1 38360U 65027BM  26128.88704257  .00000516  00000-0  16676-2 0  9990
2 38360  90.2410   3.9650 0033823 335.1176  24.8314 13.00803816659716
Epoch: 2026-05-08T21:17Z
TLE epoch observation values (Epoch: 2026-05-08T21:17:20.478Z)
Latitude
-0.00004°
Longitude
177.91729°
Altitude
1,238.392 km
Speed
7.247 km/s
True Right ascension
00h 15m 51s
True Declination
0° 00' 00"
Sunlit
Object was in daylight at epoch
Visualization orbit readout
Latitude
Unknown
Longitude
Unknown
Altitude
Unknown
Speed
Unknown
Apparent Right ascension
Unknown
Apparent Declination
Unknown
Sunlit
N/A
Visualization observer readout
Local Sidereal Time
18:56:05
Azimuth
Unknown
Elevation
Unknown
Doppler factor
Unknown
Orbital elements
Apogee altitude
1,281.886 km
Perigee altitude
1,230.243 km
Semi-major axis
7,634.202 km
Eccentricity
0.00338
Inclination
90.241°
RAAN
3.965°
Arg. of periapsis
335.1176°
True anomaly
24.99479°
Mean anomaly
24.8314°
Eccentric anomaly
24.91303°
Mean motion
3.25385 °/min
Orbital period
110.64 mins
BSTAR
0.0016676
Loading maneuver chart data...
Computing Atmospheric mass density...
Loading historical data...
Loading historical data...
Loading historical data...
Loading historical data...
Loading historical data...
Loading historical data...
Loading historical data...

Documentation

Showing up to 5 results
|